Lapse_Rate
5.8 5.8 5.8 6.0 6.0 6.2 6.3 5.9 6.0 5.9 5.8 5.6 5.0 4.3 4.2 4.7 4.7 4.8 4.8 4.5 4.3 5.0 5.4 5.6 6.0 6.0 6.0 5.9 6.0 6.0 6.1 6.2 6.2 6.2 6.3 6.5 6.5 6.2 6.0 5.7 5.8 6.0 5.7 5.9
5.8 5.9 6.1 6.0 6.2 6.3 6.1 5.9 6.0 5.8 5.8 5.6 4.8 4.7 4.2 4.8 4.6 4.5 4.5 4.7 4.7 5.6 5.6 5.7 6.0 6.0 6.0 5.9 5.9 6.0 6.1 6.1 6.1 6.1 6.3 6.3 6.3 6.1 5.9 5.9 6.2 6.0 6.3 6.0
5.8 6.1 6.1 6.2 6.3 6.3 5.8 6.1 5.9 5.4 5.7 5.8 5.5 4.9 4.4 4.5 4.7 4.5 4.0 4.5 4.8 5.8 5.7 6.0 6.1 6.1 5.9 5.8 5.9 6.0 6.1 6.0 6.0 6.2 6.5 6.6 6.4 6.3 6.2 6.1 6.5 6.4 6.1 6.0
6.0 6.1 6.2 6.4 6.4 6.1 5.8 6.0 5.9 5.8 5.3 5.5 5.4 5.1 4.3 4.2 4.4 3.8 4.1 4.7 5.0 5.9 5.8 6.1 6.2 6.0 5.9 5.9 5.9 6.0 6.1 6.0 6.1 6.3 6.6 6.5 6.4 6.2 6.2 6.1 6.3 6.3 6.1 6.0
6.0 6.1 6.2 6.3 6.1 6.2 6.3 6.2 6.0 5.9 5.0 5.1 5.3 5.1 4.5 4.7 4.4 4.1 4.8 4.9 5.2 5.8 6.0 6.2 6.3 6.0 5.9 5.8 5.9 5.9 5.9 6.0 6.1 6.4 6.5 6.4 6.3 6.1 6.2 6.0 6.5 6.2 6.1 5.8
6.0 6.0 6.2 6.2 6.2 6.2 6.3 6.2 5.6 5.5 5.0 5.3 5.7 5.8 5.0 4.9 4.8 5.2 5.0 5.1 5.5 5.8 6.0 6.2 6.2 5.9 5.8 5.8 5.8 5.8 5.8 6.0 6.1 6.4 6.5 6.4 6.3 6.2 6.1 6.1 6.5 6.3 6.0 6.0
5.9 6.1 6.1 6.1 6.3 6.2 6.5 6.0 5.9 5.6 5.0 5.7 6.0 5.7 5.4 5.5 5.4 5.6 5.3 5.2 5.8 5.8 6.0 6.2 6.1 5.9 5.9 5.9 5.9 5.7 5.8 5.9 6.3 6.4 6.6 6.5 6.4 6.2 6.1 6.4 6.7 6.2 6.2 6.3
6.0 6.0 6.0 5.9 5.9 5.9 5.9 6.0 6.0 5.7 5.4 5.7 5.8 5.6 5.4 5.4 5.3 5.5 4.9 5.2 5.9 5.8 6.0 6.1 6.0 5.8 5.8 5.9 5.9 5.8 5.7 5.9 6.3 6.4 6.5 6.5 6.3 6.2 6.0 6.5 6.7 6.1 6.1 6.2
5.9 6.0 5.8 5.9 5.8 5.9 5.9 5.7 5.8 5.5 5.8 5.3 6.4 5.6 5.4 5.3 5.4 4.9 4.7 5.2 5.8 5.7 6.0 6.1 6.0 5.9 5.9 6.0 5.9 5.8 5.7 5.9 6.1 6.3 6.4 6.4 6.3 6.0 6.1 6.5 6.5 6.5 6.3 6.4
6.1 5.7 5.9 5.8 5.7 5.7 5.7 5.8 5.7 5.7 4.3 4.8 6.8 6.3 5.6 5.6 5.2 4.9 4.6 5.2 5.6 5.8 6.0 6.1 6.1 5.9 5.9 6.0 5.9 5.7 5.7 5.8 5.9 6.1 6.2 6.1 6.1 5.8 6.0 6.4 6.3 6.5 6.6 6.5
6.0 5.8 5.8 5.7 5.7 5.7 5.6 5.4 5.6 5.5 5.6 4.8 4.3 5.6 5.7 5.6 5.1 5.0 4.7 5.1 5.8 5.9 6.1 6.1 6.0 6.0 6.0 6.0 5.8 5.7 5.7 5.7 5.7 5.8 5.9 6.0 6.0 5.7 5.8 5.9 6.0 6.3 6.6 6.6
6.0 5.8 5.5 5.7 5.6 5.6 5.6 5.6 5.5 5.4 5.3 5.2 5.1 5.2 5.8 5.4 5.1 5.3 4.7 4.9 5.8 5.9 6.1 6.1 6.0 6.0 6.0 5.9 5.8 5.7 5.7 5.6 5.6 5.6 5.7 5.9 5.8 5.6 5.5 5.6 5.6 5.9 5.8 5.9
6.1 5.7 5.5 5.8 5.6 5.6 5.8 5.9 5.5 5.4 5.3 5.4 4.5 5.8 5.6 5.1 5.3 5.1 4.7 4.8 5.7 5.7 6.0 6.1 6.0 6.0 6.0 5.9 5.8 5.7 5.7 5.7 5.5 5.5 5.6 5.7 5.8 5.7 5.4 5.4 5.4 5.4 5.3 5.3
5.9 5.9 5.8 5.7 5.8 5.7 5.7 5.9 5.6 5.3 4.9 5.3 5.7 5.8 5.1 4.6 4.8 4.7 4.9 5.0 5.6 5.6 5.9 6.1 6.0 6.0 6.0 5.9 5.9 5.8 5.7 5.6 5.5 5.5 5.6 5.6 5.7 5.7 5.5 5.3 5.4 5.2 5.0 5.1
5.9 5.9 5.8 5.8 5.8 5.7 5.8 6.1 6.1 6.0 5.7 5.5 6.3 5.9 5.5 5.4 5.1 4.9 4.9 5.0 5.1 5.8 6.0 6.1 5.9 5.9 6.0 5.9 6.0 5.9 5.7 5.6 5.5 5.8 5.7 5.7 5.5 5.6 5.6 5.3 5.5 5.3 5.2 5.1
5.9 5.8 5.7 5.8 5.8 5.7 5.9 6.1 6.3 6.4 6.2 6.3 6.1 6.5 6.0 5.5 5.3 5.0 5.0 5.0 5.0 5.8 6.0 6.1 5.9 5.9 5.9 5.8 5.9 6.0 5.8 5.7 5.6 5.9 5.8 5.7 5.6 5.6 5.6 5.4 5.6 5.6 5.3 5.3
5.7 5.6 5.4 5.2 5.4 5.5 6.1 6.9 6.7 6.5 6.6 6.4 6.4 6.3 5.8 5.7 5.5 5.3 5.1 4.9 5.0 5.2 6.0 6.0 6.0 6.0 5.9 5.9 6.0 6.0 5.8 5.8 5.7 5.9 5.9 5.8 5.6 5.7 5.6 5.5 5.6 5.7 5.5 5.3
5.6 5.5 5.2 5.3 5.0 4.0 6.2 6.4 6.6 6.7 6.7 6.8 6.5 6.3 5.9 5.7 5.8 5.5 5.1 4.9 4.9 5.1 5.4 6.0 6.1 6.0 5.9 5.9 6.0 6.0 5.9 5.8 5.8 5.9 5.9 5.8 5.7 5.7 5.6 5.6 5.6 5.7 5.5 5.4
5.4 5.3 5.2 5.1 4.9 5.9 6.2 6.4 6.5 6.4 6.8 6.8 6.6 6.4 6.0 5.9 6.1 5.5 5.2 4.9 5.0 5.0 5.1 5.5 6.0 5.9 6.0 6.0 5.9 5.9 6.0 5.9 5.9 6.0 5.9 5.9 5.9 5.7 5.7 5.7 5.8 5.7 5.5 5.6
5.0 5.0 4.9 4.7 5.0 4.7 6.1 6.2 6.2 6.5 6.7 6.5 6.6 6.5 6.2 6.0 6.2 6.0 5.5 5.0 4.8 5.0 5.0 5.2 5.7 6.0 6.1 6.0 5.9 5.8 5.9 5.8 5.8 6.0 5.9 5.9 5.9 5.8 5.9 5.8 5.8 5.9 5.8 5.7
5.6 5.2 5.1 4.7 4.9 5.9 6.3 6.1 6.1 6.2 6.6 6.5 6.6 6.6 6.4 6.2 6.0 6.1 5.7 5.2 4.8 4.9 4.8 5.0 5.3 5.9 6.2 6.1 6.0 5.8 5.6 5.6 5.7 5.9 5.9 5.8 5.9 5.9 5.9 5.9 5.8 5.8 5.9 5.9
6.4 6.2 5.8 4.8 4.5 5.8 6.4 6.2 6.1 6.3 6.4 6.4 6.5 6.6 6.5 6.3 6.1 6.2 5.9 5.4 5.0 5.0 4.8 4.8 5.1 5.3 5.9 6.2 6.1 5.9 5.7 5.7 5.6 5.7 5.8 5.8 6.0 6.0 6.0 6.0 5.9 5.9 5.8 5.9
6.1 6.3 6.4 6.3 6.6 6.4 6.2 6.3 6.2 6.2 6.3 6.5 6.4 6.5 6.5 6.5 6.3 6.2 6.1 5.7 5.1 5.0 4.9 4.7 4.9 5.0 5.2 5.5 6.0 6.0 5.9 5.8 5.7 5.8 5.7 5.7 5.7 5.9 6.0 6.1 6.1 6.1 6.0 6.0
6.5 6.5 6.2 6.4 6.6 6.4 6.2 6.2 6.2 6.2 6.2 6.4 6.4 6.3 6.4 6.5 6.4 6.3 6.3 6.0 5.4 5.0 4.9 4.7 4.7 4.8 4.9 4.9 5.2 5.7 5.9 5.9 6.0 6.0 5.8 5.7 5.6 5.7 5.8 5.9 6.0 6.1 6.2 6.2
6.5 6.5 6.5 6.6 6.6 6.3 6.3 6.2 6.2 6.2 6.2 6.4 6.4 6.3 6.3 6.4 6.5 6.2 6.3 6.3 5.8 5.3 4.9 4.9 4.6 4.7 4.8 4.7 4.9 4.9 5.3 5.9 6.1 6.1 6.1 6.0 5.8 5.8 5.7 5.8 6.1 6.3 6.3 6.2
6.5 6.7 6.8 6.7 6.5 6.5 6.4 6.2 6.2 6.3 6.2 6.3 6.5 6.3 6.2 6.3 6.5 6.3 6.1 6.4 6.2 5.8 5.3 5.0 4.7 4.6 4.7 4.7 4.7 4.8 4.9 5.1 5.7 6.0 6.1 6.1 6.0 5.9 5.9 5.8 5.7 5.6 5.7 5.7
Wind_Speed
3 1 6 6 5 6 6 6 3 4 4 3 8 5 9 7 6 3 6 7 7 8 8 8 7 8 8 8 8 8 8 8 6 5 7 7 8 8 9 12 21 21 21 20
2 5 5 3 3 4 5 7 5 3 4 3 7 5 8 8 5 1 5 6 7 8 8 7 8 8 7 8 8 8 8 7 7 5 4 3 7 7 9 15 19 22 22 20
6 4 0 2 3 9 3 4 5 6 3 7 6 6 8 6 5 6 5 6 7 7 8 7 8 8 7 8 8 8 8 7 6 7 4 3 4 9 9 10 10 16 21 19
5 2 1 3 1 6 2 5 4 5 1 2 6 3 6 7 7 4 7 7 7 8 7 7 7 8 7 7 7 8 7 7 8 8 6 6 6 9 7 6 9 11 20 20
3 3 5 4 3 4 2 3 4 5 5 7 7 2 3 7 6 5 7 7 7 7 7 7 7 8 9 7 7 7 7 7 7 7 7 5 5 6 7 4 6 11 12 18
4 1 3 4 3 2 2 5 6 4 4 3 7 2 4 4 3 4 6 6 6 7 7 7 7 7 7 7 7 7 7 7 7 7 8 8 8 8 8 8 4 7 8 9
5 3 4 3 5 5 6 5 2 2 1 2 5 2 1 8 5 3 3 5 6 7 7 6 7 6 8 7 7 7 7 7 8 8 8 8 8 12 12 12 10 7 9 10
4 3 4 5 4 4 4 3 2 3 4 4 3 4 3 8 5 6 3 3 6 6 6 6 6 6 7 7 7 7 8 7 7 8 8 7 9 9 9 10 11 4 9 11
3 3 2 3 3 2 3 0 2 2 3 3 4 4 4 6 7 6 3 5 6 7 6 6 6 5 6 6 7 7 7 7 7 8 7 6 7 9 10 12 10 5 9 11
2 1 1 3 2 2 3 1 1 1 3 5 6 5 4 7 0 4 5 5 6 6 6 6 5 5 6 5 5 7 7 7 7 8 7 6 8 7 8 10 9 7 8 11
3 2 3 2 3 3 2 3 2 0 1 2 4 3 4 7 3 3 4 5 4 4 5 5 5 6 8 7 7 7 7 7 7 8 7 7 9 12 6 8 12 13 10 9
3 3 1 3 4 4 3 3 2 3 2 1 3 5 7 8 5 5 2 5 3 4 5 4 6 7 7 7 7 7 7 7 7 8 7 7 9 11 7 6 11 13 9 8
2 2 1 1 1 2 3 4 2 4 3 4 3 5 6 7 6 6 4 4 3 5 5 5 6 6 7 6 6 7 7 7 7 8 7 6 7 7 7 6 8 12 10 6
2 3 4 3 2 2 4 5 5 5 2 3 7 3 7 7 7 6 6 4 3 4 4 4 5 6 7 6 7 7 7 7 7 8 7 6 7 6 8 7 6 8 11 9
2 3 1 5 5 3 4 5 9 8 8 3 4 5 6 7 6 6 6 4 2 3 4 3 4 5 6 7 6 6 6 6 7 7 7 7 7 7 7 10 7 6 7 10
3 2 2 3 6 4 5 8 9 11 9 12 14 13 7 6 7 6 7 5 2 2 3 3 4 5 5 7 6 6 6 6 6 6 7 7 7 7 6 10 10 6 6 6
6 2 1 2 3 4 7 12 11 6 8 5 6 4 8 5 6 6 7 6 3 2 2 2 4 2 3 6 6 7 7 6 6 6 7 7 6 7 6 8 10 8 6 6
4 2 2 3 1 2 2 3 1 10 6 12 3 7 8 3 5 6 4 5 5 3 1 3 3 3 4 6 6 8 7 6 6 6 7 7 6 6 6 6 9 7 5 6
5 4 1 2 3 5 2 4 5 7 7 15 9 9 7 6 5 5 8 5 4 3 3 2 3 4 5 5 6 7 7 6 6 6 6 7 6 6 6 7 7 6 6 5
2 4 3 2 3 5 2 5 2 3 5 6 10 9 10 8 3 3 9 7 6 4 3 3 5 2 4 4 5 7 6 6 6 6 6 6 6 6 6 7 7 5 5 6
3 1 4 3 3 7 4 8 4 3 5 6 9 9 9 6 3 7 9 6 5 4 5 3 5 3 3 3 4 6 6 7 8 6 6 6 6 6 6 6 5 5 6 7
8 8 4 3 2 8 9 5 7 4 3 7 7 8 9 9 9 8 7 7 6 6 6 5 2 3 3 4 4 5 6 7 10 7 6 6 5 5 5 7 6 5 6 6
3 7 6 9 6 1 14 1 5 5 6 7 8 8 9 11 8 9 7 7 6 6 6 4 3 2 3 4 2 4 5 7 10 8 6 6 6 6 5 5 6 4 6 6
3 3 3 2 4 7 12 4 5 5 6 7 7 8 10 9 9 8 7 6 6 6 5 5 4 4 1 2 2 2 4 6 9 7 6 5 6 6 5 3 3 4 4 4
3 7 7 5 3 3 7 14 9 7 8 8 9 7 9 10 9 8 7 7 6 6 5 5 5 4 1 3 1 2 4 6 8 7 5 4 5 5 5 4 2 2 1 1
5 7 6 6 9 6 4 16 15 12 11 11 13 10 8 9 9 7 7 6 5 6 6 5 5 4 3 2 4 2 2 5 7 6 4 5 4 4 4 4 4 6 7 6
Wind_Direction
174 23 46 30 9 318 290 298 317 93 117 259 236 214 162 167 237 29 347 23 8 8 4 23 20 14 357 9 8 355 351 351 355 3 345 348 352 352 349 344 349 335 329 329
217 71 48 315 3 293 294 304 63 112 130 211 280 228 142 162 217 234 347 30 11 7 4 15 15 10 4 11 1 349 353 3 358 348 343 352 353 347 337 340 345 333 326 325
62 62 107 320 340 352 117 21 355 321 165 233 283 249 143 174 134 235 45 51 25 6 5 8 14 8 3 10 353 350 354 5 344 357 326 355 342 340 343 343 342 334 327 326
75 145 334 263 106 352 308 4 309 289 203 345 178 298 164 157 199 183 43 38 20 2 7 12 12 3 9 1 350 350 352 359 347 344 340 344 341 342 336 340 338 333 324 324
73 61 348 32 10 335 23 318 306 301 249 286 171 251 106 123 205 52 28 23 22 7 8 10 10 12 360 354 347 340 354 349 337 344 344 340 327 326 330 326 329 328 326 319
87 223 36 355 306 243 297 256 203 254 262 263 135 208 191 173 97 29 18 13 11 10 13 14 12 9 337 345 345 337 356 341 340 352 344 335 331 333 345 334 319 328 328 321
172 96 133 309 268 180 238 272 290 296 260 248 102 285 82 123 113 75 6 8 15 9 14 13 11 5 328 353 348 343 349 340 343 353 342 335 5 7 346 338 327 328 335 333
204 226 347 4 40 332 324 333 71 280 321 306 133 254 192 124 192 114 93 39 35 10 14 13 9 13 323 1 350 340 338 339 347 351 339 338 34 6 343 327 322 323 340 336
331 113 128 60 19 342 11 344 357 298 266 317 189 86 93 168 232 74 53 64 32 11 11 11 0 4 343 0 357 332 335 344 350 347 337 352 26 358 339 323 312 328 338 345
61 203 196 111 266 194 312 215 317 262 348 307 293 113 182 194 193 23 32 52 25 14 12 5 355 348 357 357 345 332 345 348 352 342 333 27 5 333 322 322 338 336 341 353
332 203 130 139 194 39 198 202 197 307 116 210 310 262 74 125 92 24 14 69 34 12 24 358 341 36 348 357 350 345 348 360 352 341 336 33 348 327 340 359 350 339 346 6
52 338 241 82 73 30 327 339 349 121 221 184 170 273 120 132 158 160 301 77 22 41 40 8 358 41 346 350 340 351 351 2 348 335 347 33 344 328 354 10 349 336 344 20
77 226 270 222 216 172 244 159 74 95 69 226 149 265 148 158 220 142 140 82 18 36 31 22 18 32 332 336 344 353 350 358 342 335 350 19 336 337 344 8 344 340 348 17
357 291 233 220 186 123 178 162 207 189 161 233 228 255 190 206 211 140 133 113 49 49 40 29 18 32 332 342 5 342 349 342 354 333 349 356 335 353 344 334 344 358 1 356
254 256 342 295 126 184 250 193 182 209 231 189 214 297 311 125 137 117 128 145 67 49 36 22 25 30 335 332 356 342 347 350 343 334 352 349 342 344 354 345 347 12 5 358
178 269 319 287 127 211 256 235 202 204 240 270 271 283 111 114 120 160 173 132 113 41 44 29 40 27 333 326 355 346 336 352 336 346 350 347 349 345 13 350 340 354 353 11
157 212 238 262 181 265 281 224 195 197 189 198 221 206 148 166 175 189 160 151 151 95 60 14 60 359 333 321 4 337 330 345 338 360 351 347 351 344 7 355 338 332 356 358
179 167 93 252 200 284 220 44 312 200 216 210 184 161 175 159 125 124 140 141 143 118 107 72 60 358 15 332 16 324 325 352 349 358 348 340 345 347 350 355 335 326 340 354
12 114 123 149 240 275 194 214 173 171 266 214 195 165 154 115 116 218 146 129 123 134 111 86 70 45 1 345 349 315 333 347 355 349 340 335 335 349 349 339 334 325 342 339
357 38 127 136 180 228 169 143 75 102 283 173 153 155 146 134 171 211 144 149 156 147 140 109 81 18 292 29 334 318 342 345 344 334 331 330 338 344 351 335 328 323 334 337
148 113 176 205 256 284 140 140 134 128 241 152 144 146 149 172 178 138 126 132 132 144 132 114 112 249 287 70 323 327 351 338 320 317 327 333 347 344 351 334 325 342 346 342
165 154 191 187 181 278 138 80 173 189 81 136 139 145 150 128 126 134 147 140 158 165 141 168 148 264 269 84 322 350 351 320 311 309 333 336 357 344 354 358 337 358 355 345
191 186 180 180 212 125 183 285 180 145 148 161 136 147 139 143 150 148 158 159 170 173 148 151 170 283 289 103 28 358 325 314 316 314 335 338 350 347 351 21 349 357 359 355
236 149 180 74 215 186 197 202 176 166 153 150 134 144 141 149 151 158 156 163 167 162 169 163 171 248 28 8 28 34 329 319 316 311 327 350 340 349 344 5 7 359 360 352
209 135 177 254 204 63 211 204 170 179 144 135 136 148 151 147 155 157 160 166 175 154 157 174 192 210 230 310 7 51 339 319 313 313 330 360 331 335 339 333 246 304 254 316
192 179 170 213 194 177 202 195 166 167 164 156 151 150 155 149 158 151 154 162 170 164 153 182 201 185 223 297 306 93 342 313 303 316 338 332 326 333 337 332 330 267 267 275